"Pseudo-MPEC" for P21JUYS

Created 2023 Sep 27 0:22:16 UT using Find_Orb

Click here for an explanation of pseudo-MPECs

 
 Astrometry: 
     P21JUYS* C2023 09 180ZXAstrometry9redacted;:f+clickZ1here@#`GX19jeU;ebgEF52
     P21JUYS  C2023 09 18Dk1)I:P\-jH8%Y3(?4DwE^Bd9]*U$Oo;]1dQ;_,IQ1(dmR7foryRF52
     P21JUYS  C2023 09 18OApBXR\P,Rki=/AexplanationY0Z?31*oPwq(hK4rF+n%+Fa5RmF52

Station data:
(F52) Pan-STARRS 2, Haleakala  (N20.707382 W156.255910)  US/Hawaii.
   Observers J. Bulger, T. Dukes, T. Lowe, A. Schultz, M. Willman. Measurers
   K. Chambers, S. Chastel, T. de Boer, L. Denneau, J. Fairlamb, H.
   Flewelling, M. Huber, C.-C. Lin, E. Magnier, Y. Ramanjooloo, R. Wainscoat,
   R. Weryk. 1.8-m Ritchey-Chrétien + CCD.

Orbital elements:  P21JUYS
   Perihelion 2024 Jul 12.72789 +/- 308 TT = 17:28:09 (JD 2460504.22789)
Epoch 2023 Sep 18.0 TT = JDT 2460205.5   Earth MOID: 0.6191      AutoNEOCP
M 267.81275429 +/- 80               (J2000 ecliptic)
n   0.30859939 +/- 0.216            Peri.   94.60595 +/- 60
a   2.16873256 +/- 1.01             Node    31.67614 +/- 43
e   0.3878699 +/- 0.251             Incl.   34.15117 +/- 35
P   3.19                   H 18.25  G  0.15   U 11.7  SR
q 1.32754647 +/- 0.939    Q 3.00991866 +/- 33.1
From 3 observations 2023 Sept. 18 (29.6 min); mean residual 0".09
Residuals in arcseconds: 
230918 F52  .08-  .02-    230918 F52  .17+  .04+    230918 F52  .08-  .02-    

Ephemerides (geocentric):
Date (UTC) HH   RA             Dec           delta  r     elong  mag " sig PA
---- --------  ------------   ------------  ------ ------ -----  --- --------
2023 09 27 00  00 51 21.778   -28 52 20.06  1.5495 2.4600 148.4 21.9  23d  70
2023 09 27 01  00 51 17.619   -28 52 20.79  1.5493 2.4599 148.4 21.9  23d  70
2023 09 27 02  00 51 13.457   -28 52 21.49  1.5492 2.4597 148.4 21.9  23d  70
2023 09 27 03  00 51 09.295   -28 52 22.15  1.5490 2.4596 148.4 21.9  23d  70
2023 09 27 04  00 51 05.130   -28 52 22.77  1.5489 2.4594 148.4 21.9  23d  70
2023 09 27 05  00 51 00.964   -28 52 23.34  1.5488 2.4592 148.4 21.9  23d  70
2023 09 27 06  00 50 56.797   -28 52 23.88  1.5486 2.4591 148.4 21.9  23d  70
2023 09 27 07  00 50 52.628   -28 52 24.38  1.5485 2.4589 148.4 21.9  23d  70
2023 09 27 08  00 50 48.457   -28 52 24.84  1.5483 2.4588 148.4 21.9  23d  70
2023 09 27 09  00 50 44.285   -28 52 25.27  1.5482 2.4586 148.4 21.9  23d  70
2023 09 27 10  00 50 40.111   -28 52 25.65  1.5480 2.4585 148.4 21.9  23d  70
2023 09 27 11  00 50 35.936   -28 52 25.99  1.5479 2.4583 148.4 21.9  23d  70
2023 09 27 12  00 50 31.759   -28 52 26.29  1.5478 2.4582 148.4 21.9  24d  70
2023 09 27 13  00 50 27.581   -28 52 26.55  1.5476 2.4580 148.4 21.9  24d  70
2023 09 27 14  00 50 23.401   -28 52 26.78  1.5475 2.4578 148.4 21.9  24d  70
2023 09 27 15  00 50 19.219   -28 52 26.96  1.5473 2.4577 148.4 21.9  24d  70
2023 09 27 16  00 50 15.036   -28 52 27.10  1.5472 2.4575 148.4 21.9  24d  69
2023 09 27 17  00 50 10.852   -28 52 27.21  1.5470 2.4574 148.4 21.9  24d  69
2023 09 27 18  00 50 06.666   -28 52 27.27  1.5469 2.4572 148.4 21.9  25d  69
2023 09 27 19  00 50 02.479   -28 52 27.29  1.5468 2.4571 148.4 21.9  25d  69
2023 09 27 20  00 49 58.290   -28 52 27.28  1.5466 2.4569 148.4 21.9  25d  69
2023 09 27 21  00 49 54.100   -28 52 27.22  1.5465 2.4567 148.4 21.9  25d  69
2023 09 27 22  00 49 49.908   -28 52 27.13  1.5464 2.4566 148.4 21.9  25d  69
2023 09 27 23  00 49 45.715   -28 52 26.99  1.5462 2.4564 148.4 21.9  26d  69
2023 09 28 00  00 49 41.520   -28 52 26.82  1.5461 2.4563 148.4 21.9  26d  69
2023 09 28 01  00 49 37.324   -28 52 26.60  1.5459 2.4561 148.4 21.9  26d  69
2023 09 28 02  00 49 33.127   -28 52 26.34  1.5458 2.4560 148.4 21.9  26d  69
2023 09 28 03  00 49 28.928   -28 52 26.05  1.5457 2.4558 148.4 21.9  26d  69
2023 09 28 04  00 49 24.728   -28 52 25.71  1.5455 2.4556 148.3 21.9  26d  69
2023 09 28 05  00 49 20.526   -28 52 25.34  1.5454 2.4555 148.3 21.9  26d  69
2023 09 28 06  00 49 16.323   -28 52 24.92  1.5453 2.4553 148.3 21.9  26d  69
2023 09 28 07  00 49 12.118   -28 52 24.46  1.5451 2.4552 148.3 21.9  26d  69
2023 09 28 08  00 49 07.912   -28 52 23.97  1.5450 2.4550 148.3 21.9  27d  69
2023 09 28 09  00 49 03.705   -28 52 23.43  1.5449 2.4549 148.3 21.9  27d  69
2023 09 28 10  00 48 59.497   -28 52 22.85  1.5447 2.4547 148.3 21.9  27d  69
2023 09 28 11  00 48 55.287   -28 52 22.23  1.5446 2.4546 148.3 21.9  27d  69
2023 09 28 12  00 48 51.075   -28 52 21.57  1.5445 2.4544 148.3 21.9  27d  69
2023 09 28 13  00 48 46.863   -28 52 20.88  1.5444 2.4542 148.3 21.9  27d  69
2023 09 28 14  00 48 42.649   -28 52 20.14  1.5442 2.4541 148.3 21.9  27d  69
2023 09 28 15  00 48 38.433   -28 52 19.36  1.5441 2.4539 148.3 21.9  27d  69
2023 09 28 16  00 48 34.216   -28 52 18.54  1.5440 2.4538 148.3 21.9  27d  69
2023 09 28 17  00 48 29.998   -28 52 17.68  1.5438 2.4536 148.3 21.9  27d  69
2023 09 28 18  00 48 25.779   -28 52 16.77  1.5437 2.4535 148.3 21.9  27d  69
2023 09 28 19  00 48 21.559   -28 52 15.83  1.5436 2.4533 148.3 21.9  27d  69
2023 09 28 20  00 48 17.337   -28 52 14.85  1.5434 2.4531 148.3 21.9  27d  69
2023 09 28 21  00 48 13.113   -28 52 13.83  1.5433 2.4530 148.3 21.9  27d  69
2023 09 28 22  00 48 08.889   -28 52 12.76  1.5432 2.4528 148.3 21.9  27d  69
2023 09 28 23  00 48 04.663   -28 52 11.66  1.5431 2.4527 148.3 21.9  27d  69